IGO1105 VECC-VGHS

Flight info

Callsign IGO1105
Flight time 0h 30m
Altitude 17000
Route BEMAK2C BEMAK A462 IKOGU
Aircraft A320/M-SDE3FGHIRWY/LB1

Departure

Time 2026-05-05 08:04
Airport Netaji Subhash Chandra Bose International Airport (VECC)

Arrival

Time 2026-05-05 08:34
Airport Hazrat Shahjalal International Airport (VGHS)
Time Latitude Longitude Altitude Speed Heading
2026-05-05 08:02 22.66623 88.44916 25 ft 9 kts 171°
2026-05-05 08:03 22.66596 88.44913 26 ft 3 kts 186°
2026-05-05 08:03 22.66368 88.44887 28 ft 69 kts 186°
2026-05-05 08:03 22.65677 88.44807 31 ft 127 kts 186°
2026-05-05 08:03 22.64638 88.44686 99 ft 165 kts 185°
2026-05-05 08:04 22.63513 88.44544 816 ft 164 kts 186°
2026-05-05 08:04 22.62320 88.44447 1149 ft 183 kts 173°
2026-05-05 08:04 22.61173 88.45145 1407 ft 205 kts 126°
2026-05-05 08:04 22.60619 88.46632 1785 ft 220 kts 95°
2026-05-05 08:05 22.60843 88.48253 2545 ft 221 kts 63°
2026-05-05 08:05 22.61814 88.49534 3282 ft 223 kts 41°
2026-05-05 08:05 22.62894 88.50757 4020 ft 227 kts 49°
2026-05-05 08:05 22.63899 88.52082 4777 ft 229 kts 51°
2026-05-05 08:06 22.64897 88.53443 5489 ft 232 kts 51°
2026-05-05 08:06 22.65907 88.54818 6230 ft 234 kts 50°
2026-05-05 08:06 22.66931 88.56196 6904 ft 236 kts 50°
2026-05-05 08:06 22.67976 88.57586 7601 ft 239 kts 49°
2026-05-05 08:07 22.69037 88.58985 8303 ft 242 kts 49°
2026-05-05 08:07 22.70115 88.60396 9005 ft 245 kts 49°
2026-05-05 08:07 22.71211 88.61825 9731 ft 248 kts 49°
2026-05-05 08:07 22.72322 88.63273 10363 ft 251 kts 49°
2026-05-05 08:08 22.73486 88.64785 10669 ft 273 kts 49°
2026-05-05 08:08 22.74759 88.66432 10898 ft 297 kts 49°
2026-05-05 08:08 22.76134 88.68213 11097 ft 320 kts 49°
2026-05-05 08:08 22.77615 88.70133 11244 ft 343 kts 49°
2026-05-05 08:09 22.79175 88.72163 11634 ft 355 kts 49°
2026-05-05 08:09 22.80763 88.74237 12266 ft 360 kts 49°
2026-05-05 08:09 22.82372 88.76340 12906 ft 364 kts 49°
2026-05-05 08:09 22.84002 88.78468 13533 ft 369 kts 49°
2026-05-05 08:10 22.85647 88.80612 14068 ft 372 kts 49°
2026-05-05 08:10 22.87313 88.82785 14584 ft 376 kts 49°
2026-05-05 08:10 22.88993 88.84980 15102 ft 381 kts 49°
2026-05-05 08:10 22.90691 88.87201 15619 ft 385 kts 49°
2026-05-05 08:11 22.92407 88.89448 16134 ft 389 kts 50°
2026-05-05 08:11 22.93962 88.91870 16624 ft 394 kts 56°
2026-05-05 08:11 22.95472 88.94363 16829 ft 396 kts 56°
2026-05-05 08:11 22.97004 88.96899 16879 ft 410 kts 56°
2026-05-05 08:12 22.98580 88.99510 16879 ft 416 kts 56°
2026-05-05 08:12 23.00169 89.02144 16880 ft 418 kts 56°
2026-05-05 08:12 23.01764 89.04786 16879 ft 418 kts 56°
2026-05-05 08:12 23.03356 89.07426 16879 ft 418 kts 56°
2026-05-05 08:13 23.04949 89.10070 16876 ft 418 kts 56°
2026-05-05 08:13 23.06523 89.12680 16876 ft 418 kts 56°
2026-05-05 08:13 23.08118 89.15322 16877 ft 418 kts 56°
2026-05-05 08:13 23.09713 89.17964 16878 ft 418 kts 56°
2026-05-05 08:14 23.11308 89.20608 16883 ft 419 kts 56°
2026-05-05 08:14 23.12901 89.23255 16881 ft 419 kts 56°
2026-05-05 08:14 23.14493 89.25907 16876 ft 419 kts 56°
2026-05-05 08:14 23.16090 89.28561 16876 ft 419 kts 56°
2026-05-05 08:15 23.17683 89.31213 16880 ft 419 kts 56°
2026-05-05 08:15 23.19276 89.33866 16883 ft 419 kts 56°
2026-05-05 08:15 23.20872 89.36524 16886 ft 420 kts 56°
2026-05-05 08:15 23.22468 89.39178 16889 ft 420 kts 56°
2026-05-05 08:16 23.24065 89.41835 16890 ft 420 kts 56°
2026-05-05 08:16 23.25660 89.44493 16891 ft 420 kts 56°
2026-05-05 08:16 23.27254 89.47155 16892 ft 420 kts 56°
2026-05-05 08:16 23.28844 89.49814 16895 ft 420 kts 56°
2026-05-05 08:17 23.30437 89.52477 16897 ft 420 kts 56°
2026-05-05 08:17 23.32032 89.55141 16897 ft 420 kts 56°
2026-05-05 08:17 23.33617 89.57794 16811 ft 415 kts 56°
2026-05-05 08:17 23.35163 89.60387 16550 ft 402 kts 56°
2026-05-05 08:18 23.36684 89.62928 15946 ft 400 kts 55°
2026-05-05 08:18 23.38428 89.65255 15411 ft 394 kts 43°
2026-05-05 08:18 23.40498 89.67205 14885 ft 390 kts 38°
2026-05-05 08:18 23.42569 89.69067 14390 ft 386 kts 38°
2026-05-05 08:19 23.44627 89.70919 13900 ft 382 kts 38°
2026-05-05 08:19 23.46666 89.72758 13376 ft 378 kts 38°
2026-05-05 08:19 23.48680 89.74578 12817 ft 375 kts 38°
2026-05-05 08:19 23.50702 89.76339 12280 ft 370 kts 32°
2026-05-05 08:20 23.52947 89.77651 11747 ft 364 kts 19°
2026-05-05 08:20 23.55350 89.78425 11212 ft 359 kts 12°
2026-05-05 08:20 23.57766 89.79075 10686 ft 356 kts 12°
2026-05-05 08:20 23.60161 89.79725 10184 ft 353 kts 12°
2026-05-05 08:21 23.62517 89.80368 9924 ft 343 kts 12°
2026-05-05 08:21 23.64782 89.80990 9868 ft 327 kts 12°
2026-05-05 08:21 23.66934 89.81586 9878 ft 311 kts 12°
2026-05-05 08:21 23.68984 89.82154 9884 ft 298 kts 12°
2026-05-05 08:22 23.70979 89.82703 9773 ft 293 kts 12°
2026-05-05 08:22 23.72951 89.83238 9462 ft 292 kts 12°
2026-05-05 08:22 23.74898 89.83849 9139 ft 291 kts 20°
2026-05-05 08:22 23.76662 89.84929 8814 ft 292 kts 36°
2026-05-05 08:23 23.78203 89.86368 8477 ft 292 kts 39°
2026-05-05 08:23 23.79730 89.87822 8144 ft 291 kts 39°
2026-05-05 08:23 23.81246 89.89260 7925 ft 285 kts 39°
2026-05-05 08:23 23.82717 89.90654 7876 ft 274 kts 39°
2026-05-05 08:24 23.84121 89.91983 7880 ft 260 kts 39°
2026-05-05 08:24 23.85454 89.93245 7880 ft 247 kts 39°
2026-05-05 08:24 23.86732 89.94454 7730 ft 240 kts 39°
2026-05-05 08:24 23.87989 89.95643 7476 ft 238 kts 39°
2026-05-05 08:25 23.89238 89.96825 7210 ft 237 kts 39°
2026-05-05 08:25 23.90480 89.98001 6942 ft 236 kts 39°
2026-05-05 08:25 23.91720 89.99174 6676 ft 235 kts 39°
2026-05-05 08:25 23.92954 90.00345 6396 ft 235 kts 40°
2026-05-05 08:26 23.94046 90.01641 6104 ft 235 kts 53°
2026-05-05 08:26 23.95020 90.03106 5806 ft 235 kts 53°
2026-05-05 08:26 23.95945 90.04540 5529 ft 233 kts 54°
2026-05-05 08:26 23.96885 90.06009 5243 ft 232 kts 54°
2026-05-05 08:27 23.97800 90.07432 4993 ft 231 kts 54°
2026-05-05 08:27 23.98722 90.08866 4729 ft 230 kts 54°
2026-05-05 08:27 23.99655 90.10314 4436 ft 229 kts 54°
2026-05-05 08:27 24.00560 90.11718 4156 ft 229 kts 54°
2026-05-05 08:28 24.01411 90.13175 3872 ft 227 kts 70°
2026-05-05 08:28 24.01571 90.14852 3628 ft 222 kts 101°
2026-05-05 08:28 24.01187 90.16483 3342 ft 221 kts 108°
2026-05-05 08:28 24.00718 90.18080 3067 ft 220 kts 109°
2026-05-05 08:29 24.00239 90.19664 2791 ft 218 kts 109°
2026-05-05 08:29 23.99760 90.21236 2505 ft 218 kts 109°
2026-05-05 08:29 23.99277 90.22798 2247 ft 217 kts 109°
2026-05-05 08:30 23.98324 90.25903 2018 ft 216 kts 109°
2026-05-05 08:30 23.97845 90.27462 2020 ft 216 kts 109°
2026-05-05 08:30 23.97524 90.28494 2020 ft 216 kts 111°
2026-05-05 08:30 23.96733 90.29871 2018 ft 215 kts 137°
2026-05-05 08:31 23.95551 90.30869 2018 ft 215 kts 144°
2026-05-05 08:31 23.94341 90.31825 2006 ft 214 kts 144°
2026-05-05 08:31 23.93157 90.32765 1818 ft 207 kts 144°
2026-05-05 08:31 23.92034 90.33658 1601 ft 191 kts 144°
2026-05-05 08:32 23.91007 90.34475 1359 ft 173 kts 144°
2026-05-05 08:32 23.90076 90.35216 1125 ft 159 kts 144°
2026-05-05 08:32 23.89212 90.35903 933 ft 150 kts 145°
2026-05-05 08:32 23.88376 90.36567 745 ft 147 kts 144°
2026-05-05 08:33 23.87558 90.37217 575 ft 145 kts 145°
2026-05-05 08:33 23.86748 90.37860 382 ft 143 kts 145°
2026-05-05 08:33 23.85957 90.38493 192 ft 139 kts 144°
2026-05-05 08:33 23.85185 90.39103 39 ft 131 kts 146°
2026-05-05 08:34 23.84584 90.39580 39 ft 82 kts 144°
2026-05-05 08:34 23.84251 90.39847 37 ft 38 kts 144°
2026-05-05 08:34 23.84121 90.39970 38 ft 23 kts 130°
2026-05-05 08:34 23.84040 90.40113 37 ft 22 kts 115°
2026-05-05 08:35 23.83996 90.40267 37 ft 21 kts 95°
2026-05-05 08:35 23.84025 90.40421 36 ft 21 kts 62°
2026-05-05 08:35 23.84100 90.40536 36 ft 20 kts 52°
2026-05-05 08:35 23.84176 90.40575 36 ft 12 kts 317°
2026-05-05 08:36 23.84229 90.40531 36 ft 10 kts 324°
2026-05-05 08:36 23.84284 90.40536 36 ft 8 kts 42°
2026-05-05 08:36 23.84316 90.40583 36 ft 8 kts 54°
2026-05-05 08:36 23.84343 90.40611 36 ft 7 kts 24°
2026-05-05 08:37 23.84382 90.40598 36 ft 6 kts 324°
2026-05-05 08:37 23.84407 90.40578 36 ft 5 kts 323°
2026-05-05 08:37 23.84434 90.40556 36 ft 5 kts 323°
2026-05-05 08:37 23.84457 90.40539 36 ft 4 kts 335°
2026-05-05 08:38 23.84479 90.40542 36 ft 3 kts 24°
2026-05-05 08:38 23.84495 90.40561 36 ft 4 kts 52°
2026-05-05 08:38 23.84511 90.40584 36 ft 4 kts 54°
2026-05-05 08:38 23.84523 90.40602 35 ft 3 kts 53°
2026-05-05 08:39 23.84527 90.40607 35 ft 0 kts 53°